Content
SEND FEEDBACK

Daily
Averages
Monthly
Summary
United States of America

BAYOU LA BATRE, ALABAMA


Home > North America > United States > Alabama
Elevation: 0 meters     Latitude: 30 23N     Longitude: 088 14W

WEATHER
 
SELECT A DAY
Number of Records: 198,160;   Date Range: 8/14/97 - 9/30/14
 
SHARE

PRINT THIS DATA

[ ← Previous Day ]
WEATHER ALMANAC - 6 MARCH, 2014
[ Next Day → ]
[ °F ]   °C
Weather ElementAverageHighLow
Temperature11.2 °C14.4 °C (12:53 pm)8 °C (11:51 pm)
Dewpoint10.1 °C12 °C (9:50 am)6.7 °C (11:53 pm)
Humidity93.4 %100 % (3:23 am)78 % (1:42 pm)
Barometer1014.2 hPa1015.6 hPa (8:53 am)1012.5 hPa (3:03 pm)
Wind Speed11.6 km/h20.4 km/h (9:27 pm)
Wind Gust31.5 km/h (11:51 pm)
Weather ElementAverage
Visibility11.7 km
Wind DirectionWSW (247.8 °)

Weather ElementTotal
Precipitation11.94 mm
Heating Degree Days7.2 (Base 18.3)
Growing Degree Days1.2 (Base 10)
Averaged from 54 records on 6 March, 2014
WEATHER CONDITIONS BREAKOUT
WIND DIRECTION BREAKOUT
WEATHER BY HOUR - 6 MARCH, 2014
[ °F ]   °C
Local TimeTemperatureDewpointHumidityBarometerVisibilityWind DirectionWind SpeedGust SpeedPrecipitationEventsConditions
1:53 AM11.1 °C10 °C93 %1014.9 hPa16.1 kmEast (80°)9.3 km/h0 mmOvercast
2:43 AM11.1 °C10 °C93 %1014.2 hPa16.1 kmVariable7.4 km/h0 mmRainLight Rain
2:53 AM11.1 °C10 °C93 %1014.6 hPa16.1 kmEast (90°)5.6 km/h0 mmOvercast
3:23 AM10.6 °C10.6 °C100 %1014.9 hPa3.2 kmCalm1.52 mmRainHeavy Rain
3:53 AM10.6 °C10 °C96 %1012.9 hPa6.4 kmEast (80°)16.7 km/h3.56 mmRainRain
4:23 AM10.6 °C10.6 °C100 %1013.9 hPa14.5 kmWest (280°)7.4 km/h0.25 mmOvercast
4:53 AM10.6 °C10.6 °C100 %1013.2 hPa12.9 kmNNW (340°)9.3 km/h0.25 mmOvercast
5:09 AM11.1 °C10.6 °C97 %1012.9 hPa12.9 kmNorth (10°)7.4 km/hOvercast
5:29 AM11.1 °C10.6 °C97 %1013.5 hPa14.5 kmENE (70°)7.4 km/hOvercast
5:53 AM11.1 °C10.6 °C97 %1013.9 hPa16.1 kmCalmOvercast
6:15 AM11.1 °C10 °C93 %1014.2 hPa14.5 kmNNW (330°)5.6 km/hOvercast
6:53 AM10.6 °C10 °C96 %1014.9 hPa6.4 kmNNW (330°)7.4 km/h0 mmRainLight Rain
7:09 AM10.6 °C10.6 °C100 %1014.9 hPa3.2 kmNW (320°)5.6 km/h0 mmRainLight Rain
7:16 AM10.6 °C10.6 °C100 %1014.9 hPa2.9 kmNW (320°)7.4 km/h0 mmRainLight Rain
7:24 AM10.6 °C10.6 °C100 %1014.9 hPa2.4 kmNW (310°)5.6 km/h0 mmRainLight Rain
7:32 AM11.1 °C10.6 °C97 %1014.9 hPa3.2 kmNW (320°)7.4 km/h0 mmRainLight Rain
7:44 AM10.6 °C10.6 °C100 %1014.9 hPa2.9 kmNW (320°)5.6 km/h0 mmRainLight Rain
7:53 AM10.6 °C10.6 °C100 %1015.2 hPa2.9 kmNNW (340°)9.3 km/h0 mmRainLight Rain
8:01 AM11.1 °C10.6 °C97 %1014.9 hPa4 kmNNW (340°)7.4 km/h0 mmOvercast
8:12 AM11.1 °C10.6 °C97 %1015.2 hPa4.8 kmNW (320°)5.6 km/h0 mmOvercast
8:53 AM11.1 °C10.6 °C97 %1015.6 hPa8 kmNorth (350°)11.1 km/h0 mmOvercast
9:50 AM13 °C12 °C94 %1014.6 hPa12.9 kmNorth (10°)7.4 km/hOvercast
9:53 AM12.8 °C11.7 °C93 %1014.9 hPa12.9 kmNorth (10°)9.3 km/hOvercast
10:53 AM12.8 °C11.1 °C89 %1014.6 hPa14.5 kmNorth (350°)13 km/hOvercast
11:53 AM13.3 °C11.1 °C87 %1013.9 hPa16.1 kmNorth (350°)16.7 km/hOvercast
12:20 PM13.3 °C11.1 °C87 %1013.5 hPa16.1 kmNorth (360°)14.8 km/hOvercast
12:53 PM14.4 °C11.1 °C81 %1013.5 hPa16.1 kmNorth (10°)13 km/hOvercast
1:42 PM14.4 °C10.6 °C78 %1012.9 hPa16.1 kmNorth (10°)16.7 km/hOvercast
1:53 PM14.4 °C10.6 °C78 %1012.9 hPa16.1 kmNorth (360°)16.7 km/hOvercast
2:53 PM13.3 °C10.6 °C84 %1012.9 hPa12.9 kmNorth (360°)14.8 km/hOvercast
3:03 PM13.3 °C10.6 °C84 %1012.5 hPa9.7 kmNorth (350°)13 km/hHaze
3:19 PM12.2 °C10.6 °C90 %1012.5 hPa8 kmNorth (360°)16.7 km/h0 mmRainLight Rain
3:40 PM11.7 °C10.6 °C93 %1012.5 hPa4 kmNorth (350°)16.7 km/h29.6 km/h0.76 mmRainHeavy Rain
3:53 PM11.7 °C10.6 °C93 %1012.9 hPa6.4 kmNorth (350°)14.8 km/h1.52 mmRainLight Rain
4:16 PM11.7 °C11.1 °C96 %1012.5 hPa14.5 kmNNW (340°)11.1 km/h0 mmRainLight Rain
4:40 PM11.7 °C10.6 °C93 %1012.5 hPa16.1 kmNNW (340°)7.4 km/h0 mmOvercast
4:53 PM11.7 °C10.6 °C93 %1012.9 hPa16.1 kmNNW (340°)9.3 km/h0 mmOvercast
5:40 PM11.1 °C10 °C93 %1013.5 hPa9.7 kmNNW (330°)7.4 km/h0.25 mmRainLight Rain
5:51 PM11 °C10 °C94 %1013.5 hPa6.4 kmNorth (350°)16.7 km/h0.76 mmRainHeavy Rain
5:53 PM11.1 °C10 °C93 %1013.5 hPa6.4 kmNNW (340°)13 km/h0.76 mmRainHeavy Rain
6:31 PM10.6 °C10 °C96 %1013.9 hPa11.3 kmNNW (340°)9.3 km/h0.76 mmRainLight Rain
6:43 PM10.6 °C10 °C96 %1013.5 hPa14.5 kmNorth (360°)18.5 km/h0.76 mmRainLight Rain
6:53 PM10.6 °C9.4 °C92 %1013.9 hPa16.1 kmNorth (360°)18.5 km/h0.76 mmRainLight Rain
7:29 PM10 °C9.4 °C96 %1013.5 hPa16.1 kmNorth (350°)14.8 km/h0 mmOvercast
7:53 PM10 °C9.4 °C96 %1013.9 hPa16.1 kmNNW (340°)14.8 km/h0 mmOvercast
8:04 PM10 °C9.4 °C96 %1013.9 hPa16.1 kmNorth (350°)16.7 km/hOvercast
8:53 PM10 °C9.4 °C96 %1014.6 hPa16.1 kmNNW (340°)13 km/hOvercast
9:27 PM10 °C8.3 °C89 %1014.6 hPa16.1 kmNNE (20°)20.4 km/h0 mmOvercast
9:50 PM9 °C8 °C93 %1014.9 hPa16.1 kmNNE (20°)20.4 km/h0 mmOvercast
9:53 PM9.4 °C8.3 °C93 %1015.2 hPa16.1 kmNorth (10°)18.5 km/h0 mmOvercast
10:53 PM8.9 °C7.8 °C93 %1015.6 hPa16.1 kmNorth (360°)16.7 km/hOvercast
11:03 PM8.9 °C7.2 °C89 %1015.2 hPa16.1 kmNorth (10°)16.7 km/hOvercast
11:51 PM8 °C7 °C93 %1015.2 hPa16.1 kmNorth (350°)14.8 km/h31.5 km/hOvercast
11:53 PM8.3 °C6.7 °C90 %1015.6 hPa16.1 kmNorth (350°)14.8 km/h31.5 km/hOvercast
Hourly data recorded from KPQL, located 0 kilometers away from Bayou La Batre, Alabama







STORIES FROM OUR PARTNERS